This demonstration page uses our WeatherBlox Daily Observations layout. Learn more.

Hourly Observations for August 25, 2019

Temp ( °F °C ) Dew Point ( °F °C ) Humidity (%) Winds ( mph kmh ) Pressure ( in mb ) Visibility ( mi km ) Precip ( " mm )
12:15 am 00:15 Cloudy with Light Rain 64 18 63 17.1 95 95 S 8 13 29.88 1012 10 16.09344 0.01 0.254
12:35 am 00:35 Partly Cloudy with Light Drizzle 64 18 63 17.4 96 96 ESE 10 17 29.91 1013 10 16.09344 0.02 0.508
12:55 am 00:55 Clear 65 18.1 64 17.6 97 97 SE 3 6 29.91 1013 10 16.09344 0.02 0.508
1:15 am 01:15 Clear 64 17.8 64 17.6 99 99 Calm 29.88 1012 10 16.09344 0 0
1:35 am 01:35 Clear 64 17.8 64 17.7 99 99 Calm 29.88 1012 10 16.09344 0 0
1:55 am 01:55 Clear 64 17.5 63 17.4 99 99 Calm 29.88 1012 10 16.09344 0 0
2:15 am 02:15 Clear 63 17 63 17 100 100 Calm 29.88 1012 10 16.09344 0 0
2:35 am 02:35 Clear 63 17.2 63 17.2 100 100 SSW 5 7 29.88 1012 10 16.09344 0 0
2:55 am 02:55 Clear 63 17.1 63 17.1 100 100 Calm 29.85 1011 10 16.09344 0 0
3:15 am 03:15 Clear with Nearby Thunderstorms 62 16.8 62 16.8 100 100 Calm 29.85 1011 10 16.09344 0 0
3:35 am 03:35 Mostly Cloudy 62 16.9 62 16.9 100 100 S 5 7 29.88 1012 10 16.09344 0 0
3:55 am 03:55 Mostly Cloudy 62 16.8 62 16.8 100 100 Calm 29.85 1011 10 16.09344 0 0
4:15 am 04:15 Cloudy 62 16.8 62 16.8 100 100 SSE 5 7 29.85 1011 10 16.09344 0 0
4:35 am 04:35 Cloudy 63 17 63 17 100 100 SE 3 6 29.85 1011 10 16.09344 0 0
4:55 am 04:55 Cloudy 62 16.7 62 16.7 100 100 Calm 29.85 1011 10 16.09344 0 0
5:15 am 05:15 Cloudy 62 16.6 62 16.6 100 100 Calm 29.83 1010 10 16.09344 0 0
5:35 am 05:35 Cloudy 62 16.8 62 16.8 100 100 Calm 29.83 1010 10 16.09344 0 0
5:55 am 05:55 Cloudy 62 16.7 62 16.7 100 100 Calm 29.85 1011 10 16.09344 0 0
6:15 am 06:15 Cloudy with Mist and Fog 63 17 63 17 100 100 E 6 9 29.83 1010 0.75 1.207008 0 0
6:35 am 06:35 Cloudy with Mist and Fog 63 17.2 63 17.2 100 100 ESE 7 11 29.83 1010 0.75 1.207008 0 0
6:55 am 06:55 Cloudy with Mist and Fog 64 17.6 64 17.6 100 100 ESE 8 13 29.83 1010 1.25 2.01168 0 0
7:15 am 07:15 Cloudy 64 17.8 64 17.8 100 100 ESE 9 15 29.83 1010 7 11.265408 0 0
7:35 am 07:35 Cloudy with Mist and Fog 64 18 64 18 100 100 ESE 9 15 29.83 1010 5 8.04672 0 0
7:55 am 07:55 Cloudy 65 18.1 65 18.1 100 100 SE 7 11 29.83 1010 10 16.09344 0 0
8:15 am 08:15 Cloudy 65 18.3 65 18.3 100 100 ESE 7 11 29.8 1009 7 11.265408 0 0
8:35 am 08:35 Cloudy 65 18.5 65 18.5 100 100 ESE 5 7 29.85 1011 10 16.09344 0 0
8:55 am 08:55 Cloudy 65 18.6 65 18.5 99 99 SE 8 13 29.83 1010 10 16.09344 0 0
9:15 am 09:15 Cloudy 65 18.6 65 18.3 98 98 SE 8 13 29.83 1010 10 16.09344 0 0
9:35 am 09:35 Cloudy 66 18.8 65 18.4 98 98 SSE 9 15 29.83 1010 10 16.09344 0 0
9:55 am 09:55 Cloudy 66 19.1 65 18.4 96 96 SE 10 17 29.83 1010 10 16.09344 0 0
10:15 am 10:15 Cloudy 67 19.4 65 18.2 93 93 SSE 9 15 29.83 1010 10 16.09344 0 0
10:35 am 10:35 Cloudy 67 19.7 65 18.5 93 93 SSE 10 17 29.83 1010 10 16.09344 0 0
10:55 am 10:55 Cloudy 68 20 65 18.4 91 91 SSE 10 17 29.83 1010 10 16.09344 0 0
11:15 am 11:15 Cloudy 68 20 65 18.5 91 91 SSE 9 15 29.83 1010 10 16.09344 0 0
11:35 am 11:35 Cloudy 68 20 65 18.6 92 92 SSE 9 15 29.83 1010 10 16.09344 0 0
11:55 am 11:55 Cloudy 69 20.7 66 18.8 89 89 SE 7 11 29.83 1010 10 16.09344 0 0
12:15 pm 12:15 Cloudy 70 21.3 66 19.1 87 87 SSE 10 17 29.83 1010 10 16.09344 0 0
12:35 pm 12:35 Cloudy 71 21.4 66 18.8 85 85 SSE 10 17 29.83 1010 10 16.09344 0 0
12:55 pm 12:55 Cloudy 71 21.5 66 18.9 85 85 SSE 9 15 29.8 1009 10 16.09344 0 0
1:15 pm 13:15 Mostly Cloudy 72 22.1 66 19.1 83 83 SSE 12 19 29.77 1008 10 16.09344 0 0
1:35 pm 13:35 Mostly Cloudy 73 22.9 67 19.7 82 82 SSE 9 15 29.77 1008 10 16.09344 0 0
1:55 pm 13:55 Cloudy 73 22.7 67 19.4 82 82 SSE 9 15 29.77 1008 10 16.09344 0 0
2:15 pm 14:15 Cloudy 74 23.3 67 19.6 80 80 S 10 17 29.77 1008 10 16.09344 0 0
2:35 pm 14:35 Cloudy 74 23.2 68 19.8 81 81 S 8 13 29.74 1007 10 16.09344 0 0
2:55 pm 14:55 Cloudy 75 23.7 68 19.8 79 79 S 8 13 29.74 1007 10 16.09344 0 0
3:15 pm 15:15 Cloudy 74 23.4 67 19.7 80 80 SSW 6 9 29.74 1007 10 16.09344 0 0
3:35 pm 15:35 Cloudy 75 23.7 67 19.5 77 77 S 7 11 29.71 1006 10 16.09344 0 0
3:55 pm 15:55 Cloudy 75 23.8 68 19.8 78 78 S 7 11 29.71 1006 10 16.09344 0 0
4:15 pm 16:15 Cloudy 76 24.5 68 20.2 77 77 S 7 11 29.71 1006 10 16.09344 0 0
4:35 pm 16:35 Cloudy 77 24.8 69 20.5 77 77 SSE 7 11 29.71 1006 10 16.09344 0 0
4:55 pm 16:55 Cloudy 77 25.1 69 20.7 77 77 S 8 13 29.68 1005 10 16.09344 0 0
5:15 pm 17:15 Mostly Cloudy 78 25.4 69 20.8 76 76 S 7 11 29.65 1004 10 16.09344 0 0
5:35 pm 17:35 Mostly Cloudy 77 25 69 20.8 78 78 SE 7 11 29.65 1004 10 16.09344 0 0
5:55 pm 17:55 Cloudy 77 24.9 70 20.9 79 79 SE 7 11 29.65 1004 10 16.09344 0 0
6:15 pm 18:15 Cloudy 77 25 70 21 79 79 SSE 6 9 29.65 1004 10 16.09344 0 0
6:35 pm 18:35 Cloudy 76 24.5 70 21.2 82 82 ESE 8 13 29.68 1005 10 16.09344 0 0
6:55 pm 18:55 Cloudy 75 24 70 21.2 84 84 ESE 9 15 29.68 1005 10 16.09344 0 0
7:15 pm 19:15 Mostly Cloudy 74 23.5 70 21.2 87 87 ESE 9 15 29.68 1005 10 16.09344 0 0
7:35 pm 19:35 Mostly Cloudy 74 23.3 70 21.2 88 88 ESE 9 15 29.68 1005 10 16.09344 0 0
7:55 pm 19:55 Partly Cloudy 73 22.8 70 21.1 90 90 ESE 12 19 29.68 1005 10 16.09344 0 0
8:15 pm 20:15 Sunny 72 22 69 20.8 93 93 ESE 10 17 29.68 1005 10 16.09344 0 0
8:35 pm 20:35 Mostly Cloudy 71 21.5 69 20.8 96 96 ESE 8 13 29.68 1005 10 16.09344 0 0
8:55 pm 20:55 Cloudy 71 21.4 69 20.7 96 96 ESE 10 17 29.68 1005 10 16.09344 0 0
9:15 pm 21:15 Cloudy 69 20.8 69 20.3 97 97 ESE 10 17 29.71 1006 10 16.09344 0 0
9:35 pm 21:35 Cloudy 69 20.5 68 20.1 98 98 ESE 13 20 29.71 1006 10 16.09344 0 0
9:55 pm 21:55 Cloudy 68 20 67 19.7 98 98 ESE 12 19 29.71 1006 10 16.09344 0 0
10:15 pm 22:15 Partly Cloudy 67 19.6 67 19.5 99 99 ESE 13 20 29.71 1006 10 16.09344 0 0
10:35 pm 22:35 Mostly Cloudy 67 19.5 66 19.1 98 98 SE 12 19 29.71 1006 10 16.09344 0 0
10:55 pm 22:55 Cloudy 67 19.6 67 19.2 98 98 SE 12 19 29.71 1006 10 16.09344 0 0
11:15 pm 23:15 Cloudy 68 20 67 19.3 96 96 ESE 10 17 29.71 1006 10 16.09344 0 0
11:35 pm 23:35 Cloudy 68 20 67 19.5 97 97 SE 13 20 29.71 1006 10 16.09344 0 0
11:55 pm 23:55 Cloudy 68 20 67 19.3 96 96 SE 13 20 29.71 1006 10 16.09344 0 0

Powered by AerisWeather